Location: ???????
(60.4260°N, 46.9069°E)
Time: 05:51:12
(UTC+00:00)

Genesis I - Pass Details

Date: 30 March 2020
Orbit: 502 x 520 km, 64.5° (Epoch: 05 June)

Event Time Altitude Azimuth Distance (km) Brightness Sun altitude
Exits shadow 00:58:48 14° 223° (SW) 1,518 5.0 -10.6°
Maximum altitude 01:02:05 65° 143° (SE) 576 3.4 -10.2°
Drops below altitude 10° 01:05:59 10° 61° (ENE) 1,755 7.6 -9.8°
Sets 01:08:10 0° 59° (ENE) 2,641 9.1 -9.6°
